sat.trackr.live / text

‹ back to catalog

STARLINK-3705

NORAD 52103 · 2022-029R

PAYLOAD ACTIVE UNKNOWN

§ Identity

Operator
Country
US
Launch date
2022-03-19
Launch site
AFETR
Launch vehicle
Mass (kg)
RCS (m²)

Purposes: comms

External: N2YO · Heavens-Above · Gunter

§ Orbital elements

Epoch: 2026-05-25T03:28:20.956800Z

Period
95.44 min
Inclination
53.2131°
Eccentricity
0.0001457
Mean motion
15.08838854 rev/d
Perigee alt
538.7 km
Apogee alt
540.8 km
Semi-major
6,917.9 km
B*
4.6887e-6
RAAN
95.9012°
Arg perigee
62.0714°
Mean anomaly
298.0426°
Rev number
23,232

§ Raw data

STARLINK-37051 52103U 22029R   26145.14468700 -.00000213  00000+0  46887-5 0  99982 52103  53.2131  95.9012 0001457  62.0714 298.0426 15.08838854232324

JSON: /api/v1/satellites/52103 · /tle

For live sub-satellite position, see the globe view (requires WebGL).

§ Visibility from observer

Set your observer location to see the next 7 days of passes ≥ 10°. The values pass through the URL so the page stays shareable.

No JS? Fill the form by hand. The geolocation button needs JavaScript.